Location: La Comballaz
(46.3780°N, 7.0817°E)
Time: 05:45:30
(UTC+00:00)

AO-7 - Visible Passes

Search period start: 07 December 2022 00:00
Search period end: 17 December 2022 00:00
Orbit: 1439 x 1459 km, 101.9° (Epoch: 06 December)

Date Brightness Start Highest point End Pass type
(mag) Time Alt. Az. Time Alt. Az. Time Alt. Az.
07 Dec ? 02:52:43 10° NE 02:59:03 23° E 03:05:21 10° SE visible
07 Dec ? 04:44:21 10° NNE 04:52:42 84° WNW 05:01:02 10° SSW visible
08 Dec ? 03:44:36 10° NNE 03:52:35 48° E 04:00:32 10° S visible
08 Dec ? 05:37:30 10° N 05:45:16 46° WNW 05:53:03 10° SW visible
08 Dec ? 16:41:39 10° SW 16:48:03 24° W 16:54:30 10° NW visible
09 Dec ? 02:45:55 10° NE 02:51:53 21° E 02:57:47 10° SE visible
09 Dec ? 04:37:17 10° NNE 04:45:39 90° ESE 04:54:00 10° SSW visible
10 Dec ? 03:37:37 10° NNE 03:45:27 44° E 03:53:16 10° S visible
10 Dec ? 05:30:23 10° N 05:38:17 50° WNW 05:46:11 10° SW visible
10 Dec ? 16:34:10 10° SSW 16:40:53 27° W 16:47:39 10° NW visible
11 Dec ? 02:39:11 10° NE 02:44:41 19° E 02:50:09 10° SE visible
11 Dec ? 04:30:13 10° NNE 04:38:36 83° ESE 04:46:57 10° SSW visible
11 Dec ? 06:23:49 10° N 06:30:29 28° NW 06:37:10 10° WSW visible
11 Dec ? 17:32:36 10° W 17:34:50 11° W 17:37:05 10° WNW visible
12 Dec ? 03:30:39 10° NNE 03:38:20 40° E 03:46:00 10° SSE visible
12 Dec ? 05:23:17 10° NNE 05:31:17 55° WNW 05:39:18 10° SW visible
12 Dec ? 16:26:44 10° SSW 16:33:43 30° W 16:40:46 10° NW visible
13 Dec ? 02:32:31 10° NE 02:37:28 17° E 02:42:25 10° SE visible
13 Dec ? 04:23:10 10° NNE 04:31:32 77° ESE 04:39:52 10° SSW visible
13 Dec ? 06:16:40 10° N 06:23:33 30° NW 06:30:26 10° WSW visible
13 Dec ? 17:24:10 10° WSW 17:27:36 13° W 17:31:03 10° WNW visible
14 Dec ? 03:23:41 10° NNE 03:31:13 36° E 03:38:42 10° SSE visible
14 Dec ? 05:16:11 10° NNE 05:24:17 59° WNW 05:32:23 10° SW visible
14 Dec ? 16:19:20 10° SSW 16:26:34 33° W 16:33:51 10° NW visible
15 Dec ? 02:25:57 10° NE 02:30:16 15° E 02:34:34 10° ESE visible
15 Dec ? 04:16:08 10° NNE 04:24:28 71° ESE 04:32:46 10° S visible
15 Dec ? 06:09:31 10° N 06:16:36 33° NW 06:23:42 10° WSW visible
15 Dec ? 17:16:06 10° WSW 17:20:22 15° W 17:24:40 10° NW visible
16 Dec ? 03:16:46 10° NE 03:24:04 33° E 03:31:21 10° SSE visible
16 Dec ? 05:09:05 10° NNE 05:17:16 64° WNW 05:25:27 10° SW visible
16 Dec ? 16:11:59 10° SSW 16:19:25 36° W 16:26:55 10° NNW visible
